contact:dominique.lefevre@mio.osupytheas.fr, maurice.libes@osupytheas.fr, didier.mallarino@osupytheas.fr
Project:EMSO http://www.emso-fr.org/EMSO-France
Depth: 2436.0 m
Title:EMSO Ligure Ouest : Data MII capteur MICROCAT
DateTime_Computer,Latitude,Longitude,Temperature,Conductivity,Pressure,DateTime_Instrument
DateTime_Computer,Latitude,Longitude,degC,S m-1,dbar,DateTime_Instrument
2023-09-28T00:01:46Z,42.805,6.029,13.3027,4.60092,2470.646,2023-9-28T02:04:09Z
2023-09-28T00:04:49Z,42.805,6.029,13.3026,4.60093,2470.661,2023-9-28T02:07:12Z
2023-09-28T00:07:52Z,42.805,6.029,13.3031,4.60094,2470.661,2023-9-28T02:10:16Z
2023-09-28T00:10:56Z,42.805,6.029,13.3028,4.60094,2470.646,2023-9-28T02:13:19Z
2023-09-28T00:13:59Z,42.805,6.029,13.3026,4.60092,2470.67,2023-9-28T02:16:22Z
2023-09-28T00:17:02Z,42.805,6.029,13.3026,4.60093,2470.624,2023-9-28T02:19:25Z
2023-09-28T00:20:05Z,42.805,6.029,13.3029,4.60093,2470.646,2023-9-28T02:22:28Z
2023-09-28T00:23:08Z,42.805,6.029,13.3027,4.60092,2470.646,2023-9-28T02:25:31Z
2023-09-28T00:26:11Z,42.805,6.029,13.3026,4.60094,2470.646,2023-9-28T02:28:34Z
2023-09-28T00:29:14Z,42.805,6.029,13.3026,4.60093,2470.646,2023-9-28T02:31:37Z
2023-09-28T00:32:17Z,42.805,6.029,13.3032,4.60092,2470.661,2023-9-28T02:34:40Z
2023-09-28T00:35:20Z,42.805,6.029,13.3030,4.60096,2470.646,2023-9-28T02:37:43Z
2023-09-28T00:38:23Z,42.805,6.029,13.3024,4.60092,2470.6,2023-9-28T02:40:46Z
2023-09-28T00:41:26Z,42.805,6.029,13.3032,4.60094,2470.646,2023-9-28T02:43:49Z
2023-09-28T00:44:30Z,42.805,6.029,13.3026,4.60096,2470.624,2023-9-28T02:46:53Z
2023-09-28T00:47:33Z,42.805,6.029,13.3029,4.60092,2470.6,2023-9-28T02:49:56Z
2023-09-28T00:50:36Z,42.805,6.029,13.3025,4.60094,2470.624,2023-9-28T02:52:59Z
2023-09-28T00:53:39Z,42.805,6.029,13.3024,4.60094,2470.624,2023-9-28T02:56:02Z
2023-09-28T00:56:42Z,42.805,6.029,13.3029,4.60092,2470.646,2023-9-28T02:59:05Z
2023-09-28T00:59:45Z,42.805,6.029,13.3029,4.60093,2470.6,2023-9-28T03:02:08Z
2023-09-28T01:02:48Z,42.805,6.029,13.3029,4.60093,2470.624,2023-9-28T03:05:11Z
2023-09-28T01:05:51Z,42.805,6.029,13.3029,4.60093,2470.624,2023-9-28T03:08:14Z
2023-09-28T01:08:54Z,42.805,6.029,13.3027,4.60096,2470.6,2023-9-28T03:11:17Z
2023-09-28T01:11:57Z,42.805,6.029,13.3026,4.60093,2470.624,2023-9-28T03:14:20Z
2023-09-28T01:15:00Z,42.805,6.029,13.3026,4.60094,2470.624,2023-9-28T03:17:23Z
2023-09-28T01:18:03Z,42.805,6.029,13.3029,4.60092,2470.624,2023-9-28T03:20:26Z
2023-09-28T01:21:06Z,42.805,6.029,13.3026,4.60092,2470.61,2023-9-28T03:23:30Z
2023-09-28T01:24:10Z,42.805,6.029,13.3025,4.60092,2470.633,2023-9-28T03:26:33Z
2023-09-28T01:27:13Z,42.805,6.029,13.3026,4.60092,2470.6,2023-9-28T03:29:36Z
2023-09-28T01:30:16Z,42.805,6.029,13.3029,4.60093,2470.624,2023-9-28T03:32:39Z
2023-09-28T01:33:19Z,42.805,6.029,13.3027,4.60092,2470.6,2023-9-28T03:35:42Z
2023-09-28T01:36:22Z,42.805,6.029,13.3034,4.60094,2470.624,2023-9-28T03:38:45Z
2023-09-28T01:39:25Z,42.805,6.029,13.3031,4.60097,2470.624,2023-9-28T03:41:48Z
2023-09-28T01:42:28Z,42.805,6.029,13.3029,4.60094,2470.624,2023-9-28T03:44:51Z
2023-09-28T01:45:31Z,42.805,6.029,13.3030,4.60092,2470.646,2023-9-28T03:47:54Z
2023-09-28T01:48:34Z,42.805,6.029,13.3029,4.60092,2470.661,2023-9-28T03:50:57Z
2023-09-28T01:51:37Z,42.805,6.029,13.3029,4.60093,2470.637,2023-9-28T03:54:00Z
2023-09-28T01:54:40Z,42.805,6.029,13.3029,4.60093,2470.624,2023-9-28T03:57:03Z
2023-09-28T01:57:43Z,42.805,6.029,13.3026,4.60096,2470.637,2023-9-28T04:00:07Z
2023-09-28T02:00:47Z,42.805,6.029,13.3029,4.60094,2470.646,2023-9-28T04:03:10Z
2023-09-28T02:03:50Z,42.805,6.029,13.3031,4.60093,2470.637,2023-9-28T04:06:13Z
2023-09-28T02:06:53Z,42.805,6.029,13.3029,4.60096,2470.646,2023-9-28T04:09:16Z
2023-09-28T02:09:56Z,42.805,6.029,13.3029,4.60094,2470.624,2023-9-28T04:12:19Z
2023-09-28T02:12:59Z,42.805,6.029,13.3029,4.60093,2470.637,2023-9-28T04:15:22Z
2023-09-28T02:16:02Z,42.805,6.029,13.3029,4.60094,2470.67,2023-9-28T04:18:25Z
2023-09-28T02:19:05Z,42.805,6.029,13.3027,4.60093,2470.684,2023-9-28T04:21:28Z
2023-09-28T02:22:08Z,42.805,6.029,13.3031,4.60092,2470.646,2023-9-28T04:24:31Z
2023-09-28T02:25:11Z,42.805,6.029,13.3030,4.60093,2470.684,2023-9-28T04:27:34Z
2023-09-28T02:28:14Z,42.805,6.029,13.3027,4.60092,2470.684,2023-9-28T04:30:37Z
2023-09-28T02:31:17Z,42.805,6.029,13.3029,4.60092,2470.67,2023-9-28T04:33:40Z
2023-09-28T02:34:20Z,42.805,6.029,13.3027,4.60092,2470.646,2023-9-28T04:36:43Z
2023-09-28T02:37:24Z,42.805,6.029,13.3029,4.60093,2470.646,2023-9-28T04:39:47Z
2023-09-28T02:40:27Z,42.805,6.029,13.3029,4.60094,2470.67,2023-9-28T04:42:50Z
2023-09-28T02:43:30Z,42.805,6.029,13.3026,4.60093,2470.67,2023-9-28T04:45:53Z
2023-09-28T02:46:33Z,42.805,6.029,13.3029,4.60092,2470.67,2023-9-28T04:48:56Z
2023-09-28T02:49:36Z,42.805,6.029,13.3029,4.60092,2470.684,2023-9-28T04:51:59Z
2023-09-28T02:52:39Z,42.805,6.029,13.3024,4.60092,2470.693,2023-9-28T04:55:02Z
2023-09-28T02:55:42Z,42.805,6.029,13.3029,4.60093,2470.646,2023-9-28T04:58:05Z
2023-09-28T02:58:45Z,42.805,6.029,13.3028,4.60092,2470.693,2023-9-28T05:01:08Z
2023-09-28T03:01:48Z,42.805,6.029,13.3028,4.60092,2470.67,2023-9-28T05:04:11Z
2023-09-28T03:04:51Z,42.805,6.029,13.3025,4.60092,2470.717,2023-9-28T05:07:14Z
2023-09-28T03:07:54Z,42.805,6.029,13.3025,4.60092,2470.707,2023-9-28T05:10:17Z
2023-09-28T03:10:57Z,42.805,6.029,13.3030,4.60092,2470.646,2023-9-28T05:13:21Z
2023-09-28T03:14:01Z,42.805,6.029,13.3026,4.60093,2470.754,2023-9-28T05:16:24Z
2023-09-28T03:17:04Z,42.805,6.029,13.3027,4.60092,2470.67,2023-9-28T05:19:27Z
2023-09-28T03:20:07Z,42.805,6.029,13.3030,4.60094,2470.717,2023-9-28T05:22:30Z
2023-09-28T03:23:10Z,42.805,6.029,13.3024,4.60092,2470.707,2023-9-28T05:25:33Z
2023-09-28T03:26:13Z,42.805,6.029,13.3028,4.60092,2470.717,2023-9-28T05:28:36Z
2023-09-28T03:29:16Z,42.805,6.029,13.3026,4.60092,2470.693,2023-9-28T05:31:39Z
2023-09-28T03:32:19Z,42.805,6.029,13.3024,4.60091,2470.717,2023-9-28T05:34:42Z
2023-09-28T03:35:22Z,42.805,6.029,13.3027,4.60092,2470.693,2023-9-28T05:37:45Z
2023-09-28T03:38:25Z,42.805,6.029,13.3029,4.60092,2470.693,2023-9-28T05:40:48Z
2023-09-28T03:41:28Z,42.805,6.029,13.3031,4.60097,2470.717,2023-9-28T05:43:51Z
2023-09-28T03:44:31Z,42.805,6.029,13.3026,4.60092,2470.707,2023-9-28T05:46:54Z
2023-09-28T03:47:34Z,42.805,6.029,13.3025,4.60092,2470.73,2023-9-28T05:49:58Z
2023-09-28T03:50:38Z,42.805,6.029,13.3025,4.60093,2470.74,2023-9-28T05:53:01Z
2023-09-28T03:53:41Z,42.805,6.029,13.3026,4.60092,2470.754,2023-9-28T05:56:04Z
2023-09-28T03:56:44Z,42.805,6.029,13.3027,4.60093,2470.74,2023-9-28T05:59:07Z
2023-09-28T03:59:47Z,42.805,6.029,13.3024,4.60097,2470.717,2023-9-28T06:02:10Z
2023-09-28T04:02:50Z,42.805,6.029,13.3029,4.60094,2470.717,2023-9-28T06:05:13Z
2023-09-28T04:05:53Z,42.805,6.029,13.3026,4.60092,2470.777,2023-9-28T06:08:16Z
2023-09-28T04:08:56Z,42.805,6.029,13.3027,4.60092,2470.74,2023-9-28T06:11:19Z
2023-09-28T04:11:59Z,42.805,6.029,13.3027,4.60093,2470.717,2023-9-28T06:14:22Z
2023-09-28T04:15:02Z,42.805,6.029,13.3028,4.60092,2470.74,2023-9-28T06:17:25Z
2023-09-28T04:18:05Z,42.805,6.029,13.3028,4.60093,2470.74,2023-9-28T06:20:28Z
2023-09-28T04:21:08Z,42.805,6.029,13.3028,4.60092,2470.763,2023-9-28T06:23:31Z
2023-09-28T04:24:11Z,42.805,6.029,13.3027,4.60092,2470.74,2023-9-28T06:26:35Z
2023-09-28T04:27:15Z,42.805,6.029,13.3025,4.60092,2470.763,2023-9-28T06:29:38Z
2023-09-28T04:30:18Z,42.805,6.029,13.3026,4.60093,2470.763,2023-9-28T06:32:41Z
2023-09-28T04:33:21Z,42.805,6.029,13.3029,4.60093,2470.8,2023-9-28T06:35:44Z
2023-09-28T04:36:24Z,42.805,6.029,13.3026,4.60094,2470.787,2023-9-28T06:38:47Z
2023-09-28T04:39:27Z,42.805,6.029,13.3024,4.60093,2470.717,2023-9-28T06:41:51Z
2023-09-28T04:42:31Z,42.805,6.029,13.3025,4.60093,2470.787,2023-9-28T06:44:54Z
2023-09-28T04:45:34Z,42.805,6.029,13.3026,4.60093,2470.75,2023-9-28T06:47:57Z
2023-09-28T04:48:37Z,42.805,6.029,13.3030,4.60093,2470.763,2023-9-28T06:51:00Z
2023-09-28T04:51:40Z,42.805,6.029,13.3029,4.60092,2470.787,2023-9-28T06:54:03Z
2023-09-28T04:54:43Z,42.805,6.029,13.3026,4.60092,2470.773,2023-9-28T06:57:06Z
2023-09-28T04:57:46Z,42.805,6.029,13.3027,4.60093,2470.81,2023-9-28T07:00:09Z
2023-09-28T05:00:49Z,42.805,6.029,13.3025,4.60094,2470.787,2023-9-28T07:03:12Z
2023-09-28T05:03:52Z,42.805,6.029,13.3026,4.60094,2470.787,2023-9-28T07:06:15Z
2023-09-28T05:06:55Z,42.805,6.029,13.3031,4.60094,2470.8,2023-9-28T07:09:18Z
2023-09-28T05:09:58Z,42.805,6.029,13.3029,4.60093,2470.763,2023-9-28T07:12:21Z
2023-09-28T05:13:01Z,42.805,6.029,13.3026,4.60094,2470.787,2023-9-28T07:15:24Z
2023-09-28T05:16:04Z,42.805,6.029,13.3029,4.60093,2470.787,2023-9-28T07:18:28Z
2023-09-28T05:19:08Z,42.805,6.029,13.3024,4.60093,2470.787,2023-9-28T07:21:31Z
2023-09-28T05:22:11Z,42.805,6.029,13.3027,4.60093,2470.81,2023-9-28T07:24:34Z
2023-09-28T05:25:14Z,42.805,6.029,13.3030,4.60094,2470.824,2023-9-28T07:27:37Z
2023-09-28T05:28:17Z,42.805,6.029,13.3028,4.60093,2470.787,2023-9-28T07:30:40Z
2023-09-28T05:31:20Z,42.805,6.029,13.3030,4.60094,2470.81,2023-9-28T07:33:43Z
2023-09-28T05:34:23Z,42.805,6.029,13.3029,4.60093,2470.763,2023-9-28T07:36:46Z
2023-09-28T05:37:26Z,42.805,6.029,13.3030,4.60093,2470.773,2023-9-28T07:39:49Z
2023-09-28T05:40:29Z,42.805,6.029,13.3029,4.60092,2470.787,2023-9-28T07:42:52Z
2023-09-28T05:43:32Z,42.805,6.029,13.3026,4.60094,2470.833,2023-9-28T07:45:55Z
2023-09-28T05:46:35Z,42.805,6.029,13.3027,4.60094,2470.81,2023-9-28T07:48:58Z
2023-09-28T05:49:38Z,42.805,6.029,13.3030,4.60093,2470.81,2023-9-28T07:52:01Z
2023-09-28T05:52:41Z,42.805,6.029,13.3026,4.60094,2470.824,2023-9-28T07:55:05Z
2023-09-28T05:55:45Z,42.805,6.029,13.3028,4.60093,2470.824,2023-9-28T07:58:08Z
2023-09-28T05:58:48Z,42.805,6.029,13.3026,4.60093,2470.777,2023-9-28T08:01:11Z
2023-09-28T06:01:51Z,42.805,6.029,13.3025,4.60093,2470.787,2023-9-28T08:04:14Z
2023-09-28T06:04:54Z,42.805,6.029,13.3030,4.60093,2470.787,2023-9-28T08:07:17Z
2023-09-28T06:07:57Z,42.805,6.029,13.3026,4.60094,2470.8,2023-9-28T08:10:20Z
2023-09-28T06:11:00Z,42.805,6.029,13.3028,4.60093,2470.787,2023-9-28T08:13:23Z
2023-09-28T06:14:03Z,42.805,6.029,13.3028,4.60093,2470.824,2023-9-28T08:16:26Z
2023-09-28T06:17:06Z,42.805,6.029,13.3027,4.60094,2470.787,2023-9-28T08:19:29Z
2023-09-28T06:20:09Z,42.805,6.029,13.3027,4.60096,2470.8,2023-9-28T08:22:32Z
2023-09-28T06:23:12Z,42.805,6.029,13.3024,4.60093,2470.81,2023-9-28T08:25:35Z
2023-09-28T06:26:15Z,42.805,6.029,13.3026,4.60099,2470.824,2023-9-28T08:28:38Z
2023-09-28T06:29:18Z,42.805,6.029,13.3029,4.60093,2470.787,2023-9-28T08:31:42Z
2023-09-28T06:32:22Z,42.805,6.029,13.3029,4.60094,2470.8,2023-9-28T08:34:45Z
2023-09-28T06:35:25Z,42.805,6.029,13.3030,4.60097,2470.787,2023-9-28T08:37:48Z
2023-09-28T06:38:28Z,42.805,6.029,13.3029,4.60094,2470.81,2023-9-28T08:40:51Z
2023-09-28T06:41:31Z,42.805,6.029,13.3031,4.60093,2470.763,2023-9-28T08:43:54Z
2023-09-28T06:44:34Z,42.805,6.029,13.3031,4.60093,2470.824,2023-9-28T08:46:57Z
2023-09-28T06:47:37Z,42.805,6.029,13.3029,4.60102,2470.81,2023-9-28T08:50:00Z
2023-09-28T06:50:40Z,42.805,6.029,13.3028,4.60095,2470.787,2023-9-28T08:53:03Z
2023-09-28T06:53:43Z,42.805,6.029,13.3029,4.60093,2470.81,2023-9-28T08:56:06Z
2023-09-28T06:56:46Z,42.805,6.029,13.3029,4.60093,2470.81,2023-9-28T08:59:09Z
2023-09-28T06:59:49Z,42.805,6.029,13.3029,4.60093,2470.824,2023-9-28T09:02:12Z
2023-09-28T07:02:52Z,42.805,6.029,13.3026,4.60095,2470.8,2023-9-28T09:05:16Z
2023-09-28T07:05:56Z,42.805,6.029,13.3030,4.60093,2470.787,2023-9-28T09:08:19Z
2023-09-28T07:08:59Z,42.805,6.029,13.3025,4.60093,2470.787,2023-9-28T09:11:22Z
2023-09-28T07:12:02Z,42.805,6.029,13.3029,4.60093,2470.787,2023-9-28T09:14:25Z
2023-09-28T07:15:05Z,42.805,6.029,13.3026,4.60092,2470.763,2023-9-28T09:17:28Z
2023-09-28T07:18:08Z,42.805,6.029,13.3026,4.60092,2470.81,2023-9-28T09:20:31Z
2023-09-28T07:21:11Z,42.805,6.029,13.3028,4.60094,2470.777,2023-9-28T09:23:34Z
2023-09-28T07:24:14Z,42.805,6.029,13.3027,4.60094,2470.763,2023-9-28T09:26:37Z
2023-09-28T07:27:17Z,42.805,6.029,13.3027,4.60094,2470.787,2023-9-28T09:29:40Z
2023-09-28T07:30:20Z,42.805,6.029,13.3027,4.60095,2470.787,2023-9-28T09:32:43Z
2023-09-28T07:33:23Z,42.805,6.029,13.3029,4.60095,2470.8,2023-9-28T09:35:46Z
2023-09-28T07:36:26Z,42.805,6.029,13.3026,4.60094,2470.8,2023-9-28T09:38:49Z
2023-09-28T07:39:29Z,42.805,6.029,13.3030,4.60093,2470.777,2023-9-28T09:41:53Z
2023-09-28T07:42:33Z,42.805,6.029,13.3026,4.60094,2470.763,2023-9-28T09:44:56Z
2023-09-28T07:45:36Z,42.805,6.029,13.3027,4.60094,2470.763,2023-9-28T09:47:59Z
2023-09-28T07:48:39Z,42.805,6.029,13.3027,4.60094,2470.787,2023-9-28T09:51:02Z
2023-09-28T07:51:42Z,42.805,6.029,13.3031,4.60092,2470.777,2023-9-28T09:54:05Z
2023-09-28T07:54:45Z,42.805,6.029,13.3029,4.60093,2470.75,2023-9-28T09:57:08Z
2023-09-28T07:57:48Z,42.805,6.029,13.3026,4.60092,2470.763,2023-9-28T10:00:11Z
2023-09-28T08:00:51Z,42.805,6.029,13.3029,4.60094,2470.763,2023-9-28T10:03:14Z
2023-09-28T08:03:54Z,42.805,6.029,13.3024,4.60093,2470.754,2023-9-28T10:06:17Z
2023-09-28T08:06:57Z,42.805,6.029,13.3029,4.60093,2470.796,2023-9-28T10:09:20Z
2023-09-28T08:10:00Z,42.805,6.029,13.3028,4.60094,2470.777,2023-9-28T10:12:23Z
2023-09-28T08:13:03Z,42.805,6.029,13.3026,4.60092,2470.763,2023-9-28T10:15:26Z
2023-09-28T08:16:07Z,42.805,6.029,13.3023,4.60094,2470.787,2023-9-28T10:18:30Z
2023-09-28T08:19:10Z,42.805,6.029,13.3026,4.60094,2470.73,2023-9-28T10:21:33Z
2023-09-28T08:22:13Z,42.805,6.029,13.3026,4.60093,2470.75,2023-9-28T10:24:36Z
2023-09-28T08:25:16Z,42.805,6.029,13.3029,4.60093,2470.74,2023-9-28T10:27:39Z
2023-09-28T08:28:19Z,42.805,6.029,13.3028,4.60093,2470.763,2023-9-28T10:30:42Z
2023-09-28T08:31:22Z,42.805,6.029,13.3029,4.60093,2470.74,2023-9-28T10:33:45Z
2023-09-28T08:34:25Z,42.805,6.029,13.3031,4.60092,2470.787,2023-9-28T10:36:48Z
2023-09-28T08:37:28Z,42.805,6.029,13.3029,4.60093,2470.754,2023-9-28T10:39:51Z
2023-09-28T08:40:31Z,42.805,6.029,13.3025,4.60094,2470.75,2023-9-28T10:42:54Z
2023-09-28T08:43:34Z,42.805,6.029,13.3029,4.60097,2470.74,2023-9-28T10:45:57Z
2023-09-28T08:46:37Z,42.805,6.029,13.3027,4.60093,2470.74,2023-9-28T10:49:00Z
2023-09-28T08:49:40Z,42.805,6.029,13.3029,4.60095,2470.754,2023-9-28T10:52:04Z
2023-09-28T08:52:44Z,42.805,6.029,13.3026,4.60093,2470.717,2023-9-28T10:55:07Z
2023-09-28T08:55:47Z,42.805,6.029,13.3029,4.60093,2470.717,2023-9-28T10:58:10Z
2023-09-28T08:58:50Z,42.805,6.029,13.3023,4.60094,2470.754,2023-9-28T11:01:13Z
2023-09-28T09:01:53Z,42.805,6.029,13.3027,4.60094,2470.73,2023-9-28T11:04:16Z
2023-09-28T09:04:56Z,42.805,6.029,13.3031,4.60093,2470.754,2023-9-28T11:07:19Z
2023-09-28T09:07:59Z,42.805,6.029,13.3027,4.60092,2470.777,2023-9-28T11:10:22Z
2023-09-28T09:11:02Z,42.805,6.029,13.3026,4.60094,2470.754,2023-9-28T11:13:25Z
2023-09-28T09:14:05Z,42.805,6.029,13.3026,4.60096,2470.763,2023-9-28T11:16:28Z
2023-09-28T09:17:08Z,42.805,6.029,13.3028,4.60095,2470.74,2023-9-28T11:19:31Z
2023-09-28T09:20:11Z,42.805,6.029,13.3028,4.60099,2470.754,2023-9-28T11:22:34Z
2023-09-28T09:23:14Z,42.805,6.029,13.3027,4.60094,2470.717,2023-9-28T11:25:38Z
2023-09-28T09:26:18Z,42.805,6.029,13.3029,4.60093,2470.74,2023-9-28T11:28:41Z
2023-09-28T09:29:21Z,42.805,6.029,13.3029,4.60095,2470.693,2023-9-28T11:31:44Z
2023-09-28T09:32:24Z,42.805,6.029,13.3028,4.60093,2470.74,2023-9-28T11:34:47Z
2023-09-28T09:35:27Z,42.805,6.029,13.3026,4.60104,2470.717,2023-9-28T11:37:50Z
2023-09-28T09:38:30Z,42.805,6.029,13.3026,4.60094,2470.707,2023-9-28T11:40:53Z
2023-09-28T09:41:33Z,42.805,6.029,13.3029,4.60096,2470.67,2023-9-28T11:43:56Z
2023-09-28T09:44:36Z,42.805,6.029,13.3026,4.60093,2470.763,2023-9-28T11:46:59Z
2023-09-28T09:47:39Z,42.805,6.029,13.3032,4.60093,2470.693,2023-9-28T11:50:02Z
2023-09-28T09:50:42Z,42.805,6.029,13.3026,4.60092,2470.717,2023-9-28T11:53:05Z
2023-09-28T09:53:45Z,42.805,6.029,13.3029,4.60092,2470.717,2023-9-28T11:56:08Z
2023-09-28T09:56:48Z,42.805,6.029,13.3029,4.60093,2470.693,2023-9-28T11:59:12Z
2023-09-28T09:59:52Z,42.805,6.029,13.3025,4.60092,2470.73,2023-9-28T12:02:15Z
2023-09-28T10:02:55Z,42.805,6.029,13.3027,4.60093,2470.717,2023-9-28T12:05:18Z
2023-09-28T10:05:58Z,42.805,6.029,13.3029,4.60092,2470.693,2023-9-28T12:08:21Z
2023-09-28T10:09:01Z,42.805,6.029,13.3026,4.60092,2470.646,2023-9-28T12:11:24Z
2023-09-28T10:12:04Z,42.805,6.029,13.3029,4.60093,2470.693,2023-9-28T12:14:27Z
2023-09-28T10:15:07Z,42.805,6.029,13.3026,4.60093,2470.707,2023-9-28T12:17:30Z
2023-09-28T10:18:10Z,42.805,6.029,13.3026,4.60092,2470.707,2023-9-28T12:20:33Z
2023-09-28T10:21:13Z,42.805,6.029,13.3024,4.60092,2470.73,2023-9-28T12:23:36Z
2023-09-28T10:24:16Z,42.805,6.029,13.3030,4.60092,2470.656,2023-9-28T12:26:39Z
2023-09-28T10:27:19Z,42.805,6.029,13.3029,4.60092,2470.693,2023-9-28T12:29:42Z
2023-09-28T10:30:22Z,42.805,6.029,13.3029,4.60092,2470.693,2023-9-28T12:32:46Z
2023-09-28T10:33:26Z,42.805,6.029,13.3029,4.60092,2470.684,2023-9-28T12:35:49Z
2023-09-28T10:36:29Z,42.805,6.029,13.3028,4.60092,2470.693,2023-9-28T12:38:52Z
2023-09-28T10:39:32Z,42.805,6.029,13.3026,4.60092,2470.693,2023-9-28T12:41:55Z
2023-09-28T10:42:35Z,42.805,6.029,13.3029,4.60091,2470.67,2023-9-28T12:44:58Z
2023-09-28T10:45:38Z,42.805,6.029,13.3026,4.60096,2470.661,2023-9-28T12:48:01Z
2023-09-28T10:48:41Z,42.805,6.029,13.3029,4.60093,2470.693,2023-9-28T12:51:04Z
2023-09-28T10:51:44Z,42.805,6.029,13.3026,4.60094,2470.646,2023-9-28T12:54:07Z
2023-09-28T10:54:47Z,42.805,6.029,13.3029,4.60094,2470.661,2023-9-28T12:57:10Z
2023-09-28T10:57:50Z,42.805,6.029,13.3027,4.60091,2470.646,2023-9-28T13:00:13Z
2023-09-28T11:00:53Z,42.805,6.029,13.3024,4.60090,2470.661,2023-9-28T13:03:16Z
2023-09-28T11:03:56Z,42.805,6.029,13.3029,4.60094,2470.646,2023-9-28T13:06:20Z
2023-09-28T11:07:00Z,42.805,6.029,13.3026,4.60090,2470.624,2023-9-28T13:09:23Z
2023-09-28T11:10:03Z,42.805,6.029,13.3025,4.60089,2470.624,2023-9-28T13:12:26Z
2023-09-28T11:13:06Z,42.805,6.029,13.3027,4.60090,2470.67,2023-9-28T13:15:29Z
2023-09-28T11:16:09Z,42.805,6.029,13.3030,4.60089,2470.624,2023-9-28T13:18:32Z
2023-09-28T11:19:12Z,42.805,6.029,13.3033,4.60089,2470.624,2023-9-28T13:21:35Z
2023-09-28T11:22:15Z,42.805,6.029,13.3024,4.60089,2470.624,2023-9-28T13:24:38Z
2023-09-28T11:25:18Z,42.805,6.029,13.3027,4.60090,2470.61,2023-9-28T13:27:41Z
2023-09-28T11:28:21Z,42.805,6.029,13.3029,4.60092,2470.646,2023-9-28T13:30:44Z
2023-09-28T11:31:24Z,42.805,6.029,13.3028,4.60092,2470.661,2023-9-28T13:33:47Z
2023-09-28T11:34:27Z,42.805,6.029,13.3030,4.60090,2470.624,2023-9-28T13:36:50Z
2023-09-28T11:37:30Z,42.805,6.029,13.3026,4.60091,2470.684,2023-9-28T13:39:53Z
2023-09-28T11:40:33Z,42.805,6.029,13.3029,4.60090,2470.6,2023-9-28T13:42:57Z
2023-09-28T11:43:37Z,42.805,6.029,13.3026,4.60090,2470.624,2023-9-28T13:46:00Z
2023-09-28T11:46:40Z,42.805,6.029,13.3028,4.60091,2470.6,2023-9-28T13:49:03Z
2023-09-28T11:49:43Z,42.805,6.029,13.3029,4.60091,2470.624,2023-9-28T13:52:06Z
2023-09-28T11:52:46Z,42.805,6.029,13.3028,4.60096,2470.637,2023-9-28T13:55:09Z
2023-09-28T11:55:49Z,42.805,6.029,13.3024,4.60089,2470.624,2023-9-28T13:58:12Z
2023-09-28T11:58:52Z,42.805,6.029,13.3026,4.60089,2470.624,2023-9-28T14:01:15Z
2023-09-28T12:01:55Z,42.805,6.029,13.3025,4.60089,2470.624,2023-9-28T14:04:18Z
2023-09-28T12:04:58Z,42.805,6.029,13.3029,4.60090,2470.637,2023-9-28T14:07:21Z
2023-09-28T12:08:01Z,42.805,6.029,13.3031,4.60090,2470.6,2023-9-28T14:10:24Z
2023-09-28T12:11:04Z,42.805,6.029,13.3032,4.60090,2470.624,2023-9-28T14:13:27Z
2023-09-28T12:14:07Z,42.805,6.029,13.3031,4.60092,2470.624,2023-9-28T14:16:31Z
2023-09-28T12:17:11Z,42.805,6.029,13.3026,4.60092,2470.6,2023-9-28T14:19:34Z
2023-09-28T12:20:14Z,42.805,6.029,13.3030,4.60091,2470.624,2023-9-28T14:22:37Z
2023-09-28T12:23:17Z,42.805,6.029,13.3027,4.60096,2470.624,2023-9-28T14:25:40Z
2023-09-28T12:26:20Z,42.805,6.029,13.3029,4.60091,2470.646,2023-9-28T14:28:43Z
2023-09-28T12:29:23Z,42.805,6.029,13.3028,4.60090,2470.624,2023-9-28T14:31:46Z
2023-09-28T12:32:26Z,42.805,6.029,13.3030,4.60089,2470.6,2023-9-28T14:34:49Z
2023-09-28T12:35:29Z,42.805,6.029,13.3029,4.60089,2470.637,2023-9-28T14:37:52Z
2023-09-28T12:38:32Z,42.805,6.029,13.3027,4.60090,2470.614,2023-9-28T14:40:55Z
2023-09-28T12:41:35Z,42.805,6.029,13.3025,4.60093,2470.637,2023-9-28T14:43:58Z
2023-09-28T12:44:38Z,42.805,6.029,13.3026,4.60090,2470.6,2023-9-28T14:47:01Z
2023-09-28T12:47:41Z,42.805,6.029,13.3026,4.60090,2470.6,2023-9-28T14:50:05Z
2023-09-28T12:50:44Z,42.805,6.029,13.3029,4.60089,2470.6,2023-9-28T14:53:08Z
2023-09-28T12:53:48Z,42.805,6.029,13.3026,4.60090,2470.6,2023-9-28T14:56:11Z
2023-09-28T12:56:51Z,42.805,6.029,13.3024,4.60090,2470.624,2023-9-28T14:59:14Z
2023-09-28T12:59:54Z,42.805,6.029,13.3026,4.60092,2470.624,2023-9-28T15:02:17Z
2023-09-28T13:02:57Z,42.805,6.029,13.3027,4.60092,2470.624,2023-9-28T15:05:20Z
2023-09-28T13:06:00Z,42.805,6.029,13.3029,4.60090,2470.624,2023-9-28T15:08:23Z
2023-09-28T13:09:03Z,42.805,6.029,13.3025,4.60091,2470.637,2023-9-28T15:11:26Z
2023-09-28T13:12:06Z,42.805,6.029,13.3028,4.60089,2470.646,2023-9-28T15:14:29Z
2023-09-28T13:15:09Z,42.805,6.029,13.3025,4.60091,2470.577,2023-9-28T15:17:32Z
2023-09-28T13:18:12Z,42.805,6.029,13.3026,4.60093,2470.6,2023-9-28T15:20:35Z
2023-09-28T13:21:15Z,42.805,6.029,13.3024,4.60093,2470.614,2023-9-28T15:23:39Z
2023-09-28T13:24:19Z,42.805,6.029,13.3030,4.60091,2470.624,2023-9-28T15:26:42Z
2023-09-28T13:27:22Z,42.805,6.029,13.3026,4.60090,2470.6,2023-9-28T15:29:45Z
2023-09-28T13:30:25Z,42.805,6.029,13.3028,4.60089,2470.6,2023-9-28T15:32:48Z
2023-09-28T13:33:28Z,42.805,6.029,13.3025,4.60090,2470.577,2023-9-28T15:35:51Z
2023-09-28T13:36:31Z,42.805,6.029,13.3029,4.60091,2470.6,2023-9-28T15:38:54Z
2023-09-28T13:39:34Z,42.805,6.029,13.3029,4.60091,2470.624,2023-9-28T15:41:57Z
2023-09-28T13:42:37Z,42.805,6.029,13.3027,4.60092,2470.637,2023-9-28T15:45:00Z
2023-09-28T13:45:40Z,42.805,6.029,13.3027,4.60089,2470.6,2023-9-28T15:48:03Z
2023-09-28T13:48:43Z,42.805,6.029,13.3028,4.60091,2470.646,2023-9-28T15:51:06Z
2023-09-28T13:51:46Z,42.805,6.029,13.3029,4.60095,2470.624,2023-9-28T15:54:09Z
2023-09-28T13:54:49Z,42.805,6.029,13.3030,4.60089,2470.624,2023-9-28T15:57:12Z
2023-09-28T13:57:52Z,42.805,6.029,13.3031,4.60094,2470.637,2023-9-28T16:00:16Z
2023-09-28T14:00:56Z,42.805,6.029,13.3037,4.60089,2470.61,2023-9-28T16:03:19Z
2023-09-28T14:03:59Z,42.805,6.029,13.3032,4.60091,2470.67,2023-9-28T16:06:22Z
2023-09-28T14:07:02Z,42.805,6.029,13.3027,4.60089,2470.661,2023-9-28T16:09:25Z
2023-09-28T14:10:05Z,42.805,6.029,13.3026,4.60091,2470.646,2023-9-28T16:12:28Z
2023-09-28T14:13:08Z,42.805,6.029,13.3028,4.60091,2470.684,2023-9-28T16:15:31Z
2023-09-28T14:16:11Z,42.805,6.029,13.3025,4.60091,2470.646,2023-9-28T16:18:34Z
2023-09-28T14:19:14Z,42.805,6.029,13.3030,4.60094,2470.637,2023-9-28T16:21:37Z
2023-09-28T14:22:17Z,42.805,6.029,13.3031,4.60092,2470.646,2023-9-28T16:24:40Z
2023-09-28T14:25:20Z,42.805,6.029,13.3030,4.60092,2470.67,2023-9-28T16:27:43Z
2023-09-28T14:28:23Z,42.805,6.029,13.3028,4.60093,2470.646,2023-9-28T16:30:46Z
2023-09-28T14:31:27Z,42.805,6.029,13.3028,4.60091,2470.67,2023-9-28T16:33:50Z
2023-09-28T14:34:30Z,42.805,6.029,13.3029,4.60092,2470.67,2023-9-28T16:36:54Z
2023-09-28T14:37:34Z,42.805,6.029,13.3029,4.60091,2470.67,2023-9-28T16:39:57Z
2023-09-28T14:40:37Z,42.805,6.029,13.3030,4.60090,2470.684,2023-9-28T16:43:00Z
2023-09-28T14:43:40Z,42.805,6.029,13.3030,4.60091,2470.67,2023-9-28T16:46:03Z
2023-09-28T14:46:43Z,42.805,6.029,13.3029,4.60092,2470.717,2023-9-28T16:49:06Z
2023-09-28T14:49:46Z,42.805,6.029,13.3029,4.60089,2470.67,2023-9-28T16:52:09Z
2023-09-28T14:52:49Z,42.805,6.029,13.3030,4.60090,2470.693,2023-9-28T16:55:12Z
2023-09-28T14:55:52Z,42.805,6.029,13.3030,4.60093,2470.67,2023-9-28T16:58:15Z
2023-09-28T14:58:55Z,42.805,6.029,13.3027,4.60094,2470.67,2023-9-28T17:01:18Z
2023-09-28T15:01:58Z,42.805,6.029,13.3031,4.60092,2470.717,2023-9-28T17:04:21Z
2023-09-28T15:05:01Z,42.805,6.029,13.3029,4.60094,2470.717,2023-9-28T17:07:24Z
2023-09-28T15:08:04Z,42.805,6.029,13.3031,4.60092,2470.763,2023-9-28T17:10:27Z
2023-09-28T15:11:07Z,42.805,6.029,13.3031,4.60091,2470.684,2023-9-28T17:13:31Z
2023-09-28T15:14:11Z,42.805,6.029,13.3029,4.60092,2470.717,2023-9-28T17:16:34Z